Weather History for KBVO - March, 2013

Change the Weather History Date:

Monday, March 11, 2013

  Actual Average Record
Temperature  
Mean Temperature 39 °F -  
Max Temperature 52 °F 62 °F 91 °F (1967)
Min Temperature 27 °F 39 °F -1 °F (1948)
Degree Days  
Heating Degree Days 26    
Moisture  
Dew Point 19 °F    
Average Humidity 56    
Maximum Humidity 81    
Minimum Humidity 19    
Precipitation  
Precipitation 0.00 in - - ()
Sea Level Pressure  
Sea Level Pressure 30.03 in    
Wind  
Wind Speed 4 mph (WNW)    
Max Wind Speed 9 mph    
Max Gust Speed -    
Visibility 10 miles    
Events      
Averages and records for this station are not official NWS values.
T = Trace of Precipitation, MM = Missing Value Source: NWS Daily Summary

Daily Weather History Graph

Daily Weather History Graph

Search for Another Location

Airport or City:

Trip Planner

Search our weather history database for the weather conditions in past years. The results will help you decide how hot, cold, wet, or windy it might be!

Date:

Astronomy

Mar. 11, 2013 Rise Set
Actual Time 7:40 AM CDT 7:28 PM CDT
Civil Twilight 7:14 AM CDT 7:53 PM CDT
Nautical Twilight 6:44 AM CDT 8:23 PM CDT
Astronomical Twilight 6:14 AM CDT 8:54 PM CDT
Moon 7:15 AM CDT (3/11) 7:39 PM CDT (3/11)
Length of Visible Light 12h 39m
Length of Day
11h 47m
Waning Crescent, 0% of the Moon is Illuminated
Mar 11
Waning Crescent
Mar 11
New
Mar 19
First Quarter
Mar 27
Full
Apr 2
Last Quarter

Hourly Weather History & Observations

Time (CDT) Temp. Windchill Dew Point Humidity Pressure Visibility Wind Dir Wind Speed Gust Speed Precip Events Conditions
12:53 AM 30.9 °F 25.2 °F 24.1 °F 76% 30.04 in 10.0 mi Variable 5.8 mph - N/A   Overcast
1:53 AM 30.9 °F 25.2 °F 23.0 °F 72% 30.03 in 10.0 mi NW 5.8 mph - N/A   Overcast
2:53 AM 30.9 °F 26.2 °F 21.9 °F 69% 30.03 in 10.0 mi Variable 4.6 mph - N/A   Overcast
3:53 AM 30.9 °F 26.2 °F 21.9 °F 69% 30.02 in 10.0 mi Variable 4.6 mph - N/A   Overcast
4:53 AM 30.0 °F 26.5 °F 21.9 °F 72% 30.02 in 10.0 mi WNW 3.5 mph - N/A   Mostly Cloudy
5:02 AM 30.2 °F 26.7 °F 21.2 °F 69% 30.01 in 10.0 mi Variable 3.5 mph - N/A   Mostly Cloudy
5:53 AM 30.0 °F - 21.9 °F 72% 30.02 in 10.0 mi Calm Calm - N/A   Clear
6:53 AM 27.0 °F 21.6 °F 21.0 °F 78% 30.03 in 10.0 mi West 4.6 mph - N/A   Clear
7:53 AM 27.0 °F 21.6 °F 21.9 °F 81% 30.03 in 10.0 mi West 4.6 mph - N/A   Clear
8:53 AM 30.0 °F 26.5 °F 21.0 °F 69% 30.04 in 10.0 mi Variable 3.5 mph - N/A   Clear
9:53 AM 33.1 °F 28.7 °F 21.0 °F 61% 30.05 in 10.0 mi Variable 4.6 mph - N/A   Clear
10:53 AM 34.0 °F 26.6 °F 21.0 °F 59% 30.05 in 10.0 mi West 9.2 mph - N/A   Clear
11:53 AM 39.9 °F 35.1 °F 21.0 °F 47% 30.06 in 10.0 mi Variable 6.9 mph - N/A   Clear
12:53 PM 43.0 °F 38.2 °F 21.0 °F 42% 30.03 in 10.0 mi WNW 8.1 mph - N/A   Clear
1:53 PM 46.9 °F - 17.1 °F 30% 30.01 in 10.0 mi Variable 5.8 mph - N/A   Clear
2:53 PM 48.9 °F - 14.0 °F 25% 30.00 in 10.0 mi Variable 5.8 mph - N/A   Clear
3:53 PM 50.0 °F - 12.9 °F 23% 29.99 in 10.0 mi WNW 6.9 mph - N/A   Clear
4:53 PM 51.1 °F - 10.0 °F 19% 29.99 in 10.0 mi WNW 5.8 mph - N/A   Clear
5:53 PM 51.1 °F - 10.0 °F 19% 29.98 in 10.0 mi Variable 4.6 mph - N/A   Clear
6:53 PM 48.9 °F - 10.9 °F 22% 29.99 in 10.0 mi Calm Calm - N/A   Clear
7:53 PM 39.0 °F - 21.0 °F 49% 30.01 in 10.0 mi Calm Calm - N/A   Clear
8:53 PM 35.1 °F - 21.0 °F 57% 30.04 in 10.0 mi Calm Calm - N/A   Clear
9:53 PM 30.0 °F - 23.0 °F 75% 30.05 in 10.0 mi Calm Calm - N/A   Clear
10:53 PM 30.0 °F - 21.9 °F 72% 30.05 in 10.0 mi Calm Calm - N/A   Clear
11:53 PM 27.0 °F - 21.9 °F 81% 30.06 in 10.0 mi Calm Calm - N/A   Clear